User: anonymous   Login
Location: Dover
(39.1580°N, 75.5250°W)
Time: 13:21:44
(UTC-04:00)
Language:

Cosmos 1437 Rocket - Orbit

View from above orbital plane
View from above orbital plane
View from above satellite
View from above satellite

Ground track
Ground track

The orbit data is extracted from the following two-line orbital elements,

1 13771U 83003B   15183.92022345  .00000962  00000-0  59911-4 0  9994
2 13771 081.1548 107.0979 0026327 213.0432 146.9149 15.08420638765904
Epoch (UTC): 02 July 2015 22:05:07
Eccentricity: 0.0026327
inclination: 81.1548°
perigee height: 523 km
apogee height: 559 km
right ascension of ascending node: 107.0979°
argument of perigee: 213.0432°
revolutions per day: 15.08420638
mean anomaly at epoch: 146.9149°
orbit number at epoch: 76590

The dashed part of the orbit path shows where the satellite is in the earth's shadow,  

DLR